Index of /20260504/WXO-DD/model_gdps/15km/12/114
Name Last modified Size Description
Parent Directory -
20260504T12Z_MSC_GDPS_AbsoluteVorticity_IsbL-0200_LatLon0.15_PT114H.grib2 2026-05-04 16:44 1.5M
20260504T12Z_MSC_GDPS_AbsoluteVorticity_IsbL-0250_LatLon0.15_PT114H.grib2 2026-05-04 16:44 1.3M
20260504T12Z_MSC_GDPS_AbsoluteVorticity_IsbL-0500_LatLon0.15_PT114H.grib2 2026-05-04 16:44 1.2M
20260504T12Z_MSC_GDPS_AbsoluteVorticity_IsbL-0700_LatLon0.15_PT114H.grib2 2026-05-04 16:44 1.3M
20260504T12Z_MSC_GDPS_AbsoluteVorticity_IsbL-0850_LatLon0.15_PT114H.grib2 2026-05-04 16:44 1.6M
20260504T12Z_MSC_GDPS_AirTemp-Max_AGL-2m_LatLon0.15_PT114H.grib2 2026-05-04 16:44 743K
20260504T12Z_MSC_GDPS_AirTemp-Min_AGL-2m_LatLon0.15_PT114H.grib2 2026-05-04 16:44 792K
20260504T12Z_MSC_GDPS_AirTemp_AGL-120m_LatLon0.15_PT114H.grib2 2026-05-04 16:44 904K
20260504T12Z_MSC_GDPS_AirTemp_AGL-2m_LatLon0.15_PT114H.grib2 2026-05-04 16:44 1.0M
20260504T12Z_MSC_GDPS_AirTemp_AGL-40m_LatLon0.15_PT114H.grib2 2026-05-04 16:44 808K
20260504T12Z_MSC_GDPS_AirTemp_AGL-80m_LatLon0.15_PT114H.grib2 2026-05-04 16:44 914K
20260504T12Z_MSC_GDPS_AirTemp_IsbL-0001_LatLon0.15_PT114H.grib2 2026-05-04 16:44 663K
20260504T12Z_MSC_GDPS_AirTemp_IsbL-0005_LatLon0.15_PT114H.grib2 2026-05-04 16:44 537K
20260504T12Z_MSC_GDPS_AirTemp_IsbL-0010_LatLon0.15_PT114H.grib2 2026-05-04 16:44 701K
20260504T12Z_MSC_GDPS_AirTemp_IsbL-0020_LatLon0.15_PT114H.grib2 2026-05-04 16:44 785K
20260504T12Z_MSC_GDPS_AirTemp_IsbL-0030_LatLon0.15_PT114H.grib2 2026-05-04 16:44 834K
20260504T12Z_MSC_GDPS_AirTemp_IsbL-0050_LatLon0.15_PT114H.grib2 2026-05-04 16:44 805K
20260504T12Z_MSC_GDPS_AirTemp_IsbL-0100_LatLon0.15_PT114H.grib2 2026-05-04 16:44 958K
20260504T12Z_MSC_GDPS_AirTemp_IsbL-0150_LatLon0.15_PT114H.grib2 2026-05-04 16:44 964K
20260504T12Z_MSC_GDPS_AirTemp_IsbL-0175_LatLon0.15_PT114H.grib2 2026-05-04 16:44 956K
20260504T12Z_MSC_GDPS_AirTemp_IsbL-0200_LatLon0.15_PT114H.grib2 2026-05-04 16:44 965K
20260504T12Z_MSC_GDPS_AirTemp_IsbL-0225_LatLon0.15_PT114H.grib2 2026-05-04 16:44 963K
20260504T12Z_MSC_GDPS_AirTemp_IsbL-0250_LatLon0.15_PT114H.grib2 2026-05-04 16:44 1.0M
20260504T12Z_MSC_GDPS_AirTemp_IsbL-0275_LatLon0.15_PT114H.grib2 2026-05-04 16:44 1.0M
20260504T12Z_MSC_GDPS_AirTemp_IsbL-0300_LatLon0.15_PT114H.grib2 2026-05-04 16:44 941K
20260504T12Z_MSC_GDPS_AirTemp_IsbL-0350_LatLon0.15_PT114H.grib2 2026-05-04 16:44 924K
20260504T12Z_MSC_GDPS_AirTemp_IsbL-0400_LatLon0.15_PT114H.grib2 2026-05-04 16:44 937K
20260504T12Z_MSC_GDPS_AirTemp_IsbL-0450_LatLon0.15_PT114H.grib2 2026-05-04 16:44 961K
20260504T12Z_MSC_GDPS_AirTemp_IsbL-0500_LatLon0.15_PT114H.grib2 2026-05-04 16:44 764K
20260504T12Z_MSC_GDPS_AirTemp_IsbL-0550_LatLon0.15_PT114H.grib2 2026-05-04 16:44 799K
20260504T12Z_MSC_GDPS_AirTemp_IsbL-0600_LatLon0.15_PT114H.grib2 2026-05-04 16:44 886K
20260504T12Z_MSC_GDPS_AirTemp_IsbL-0650_LatLon0.15_PT114H.grib2 2026-05-04 16:44 915K
20260504T12Z_MSC_GDPS_AirTemp_IsbL-0700_LatLon0.15_PT114H.grib2 2026-05-04 16:44 947K
20260504T12Z_MSC_GDPS_AirTemp_IsbL-0750_LatLon0.15_PT114H.grib2 2026-05-04 16:44 1.0M
20260504T12Z_MSC_GDPS_AirTemp_IsbL-0800_LatLon0.15_PT114H.grib2 2026-05-04 16:44 1.1M
20260504T12Z_MSC_GDPS_AirTemp_IsbL-0850_LatLon0.15_PT114H.grib2 2026-05-04 16:44 1.1M
20260504T12Z_MSC_GDPS_AirTemp_IsbL-0875_LatLon0.15_PT114H.grib2 2026-05-04 16:44 1.2M
20260504T12Z_MSC_GDPS_AirTemp_IsbL-0900_LatLon0.15_PT114H.grib2 2026-05-04 16:44 1.1M
20260504T12Z_MSC_GDPS_AirTemp_IsbL-0925_LatLon0.15_PT114H.grib2 2026-05-04 16:44 1.1M
20260504T12Z_MSC_GDPS_AirTemp_IsbL-0950_LatLon0.15_PT114H.grib2 2026-05-04 16:44 1.1M
20260504T12Z_MSC_GDPS_AirTemp_IsbL-0970_LatLon0.15_PT114H.grib2 2026-05-04 16:44 1.1M
20260504T12Z_MSC_GDPS_AirTemp_IsbL-0985_LatLon0.15_PT114H.grib2 2026-05-04 16:44 1.1M
20260504T12Z_MSC_GDPS_AirTemp_IsbL-1000_LatLon0.15_PT114H.grib2 2026-05-04 16:44 1.1M
20260504T12Z_MSC_GDPS_AirTemp_IsbL-1015_LatLon0.15_PT114H.grib2 2026-05-04 16:44 1.1M
20260504T12Z_MSC_GDPS_Albedo_Sfc_LatLon0.15_PT114H.grib2 2026-05-04 16:44 246K
20260504T12Z_MSC_GDPS_CAPE_Sfc_LatLon0.15_PT114H.grib2 2026-05-04 16:44 4.1M
20260504T12Z_MSC_GDPS_CIN_Sfc_LatLon0.15_PT114H.grib2 2026-05-04 16:44 2.8M
20260504T12Z_MSC_GDPS_CloudWater_EAtm_LatLon0.15_PT114H.grib2 2026-05-04 16:44 539K
20260504T12Z_MSC_GDPS_ConvectivePrecip-Accum_Sfc_LatLon0.15_PT114H.grib2 2026-05-04 16:44 3.5M
20260504T12Z_MSC_GDPS_DewPointDepression_AGL-2m_LatLon0.15_PT114H.grib2 2026-05-04 16:44 766K
20260504T12Z_MSC_GDPS_DewPointDepression_IsbL-0010_LatLon0.15_PT114H.grib2 2026-05-04 16:44 64K
20260504T12Z_MSC_GDPS_DewPointDepression_IsbL-0020_LatLon0.15_PT114H.grib2 2026-05-04 16:44 83K
20260504T12Z_MSC_GDPS_DewPointDepression_IsbL-0030_LatLon0.15_PT114H.grib2 2026-05-04 16:44 94K
20260504T12Z_MSC_GDPS_DewPointDepression_IsbL-0050_LatLon0.15_PT114H.grib2 2026-05-04 16:44 385K
20260504T12Z_MSC_GDPS_DewPointDepression_IsbL-0100_LatLon0.15_PT114H.grib2 2026-05-04 16:44 399K
20260504T12Z_MSC_GDPS_DewPointDepression_IsbL-0150_LatLon0.15_PT114H.grib2 2026-05-04 16:44 492K
20260504T12Z_MSC_GDPS_DewPointDepression_IsbL-0175_LatLon0.15_PT114H.grib2 2026-05-04 16:44 597K
20260504T12Z_MSC_GDPS_DewPointDepression_IsbL-0200_LatLon0.15_PT114H.grib2 2026-05-04 16:44 700K
20260504T12Z_MSC_GDPS_DewPointDepression_IsbL-0225_LatLon0.15_PT114H.grib2 2026-05-04 16:44 776K
20260504T12Z_MSC_GDPS_DewPointDepression_IsbL-0250_LatLon0.15_PT114H.grib2 2026-05-04 16:44 867K
20260504T12Z_MSC_GDPS_DewPointDepression_IsbL-0275_LatLon0.15_PT114H.grib2 2026-05-04 16:44 885K
20260504T12Z_MSC_GDPS_DewPointDepression_IsbL-0300_LatLon0.15_PT114H.grib2 2026-05-04 16:44 933K
20260504T12Z_MSC_GDPS_DewPointDepression_IsbL-0350_LatLon0.15_PT114H.grib2 2026-05-04 16:44 953K
20260504T12Z_MSC_GDPS_DewPointDepression_IsbL-0400_LatLon0.15_PT114H.grib2 2026-05-04 16:44 1.0M
20260504T12Z_MSC_GDPS_DewPointDepression_IsbL-0450_LatLon0.15_PT114H.grib2 2026-05-04 16:44 1.0M
20260504T12Z_MSC_GDPS_DewPointDepression_IsbL-0500_LatLon0.15_PT114H.grib2 2026-05-04 16:44 1.0M
20260504T12Z_MSC_GDPS_DewPointDepression_IsbL-0550_LatLon0.15_PT114H.grib2 2026-05-04 16:44 1.0M
20260504T12Z_MSC_GDPS_DewPointDepression_IsbL-0600_LatLon0.15_PT114H.grib2 2026-05-04 16:44 1.0M
20260504T12Z_MSC_GDPS_DewPointDepression_IsbL-0650_LatLon0.15_PT114H.grib2 2026-05-04 16:44 1.1M
20260504T12Z_MSC_GDPS_DewPointDepression_IsbL-0700_LatLon0.15_PT114H.grib2 2026-05-04 16:44 1.1M
20260504T12Z_MSC_GDPS_DewPointDepression_IsbL-0750_LatLon0.15_PT114H.grib2 2026-05-04 16:44 1.1M
20260504T12Z_MSC_GDPS_DewPointDepression_IsbL-0800_LatLon0.15_PT114H.grib2 2026-05-04 16:44 1.2M
20260504T12Z_MSC_GDPS_DewPointDepression_IsbL-0850_LatLon0.15_PT114H.grib2 2026-05-04 16:44 1.2M
20260504T12Z_MSC_GDPS_DewPointDepression_IsbL-0875_LatLon0.15_PT114H.grib2 2026-05-04 16:44 1.1M
20260504T12Z_MSC_GDPS_DewPointDepression_IsbL-0900_LatLon0.15_PT114H.grib2 2026-05-04 16:44 1.1M
20260504T12Z_MSC_GDPS_DewPointDepression_IsbL-0925_LatLon0.15_PT114H.grib2 2026-05-04 16:44 1.0M
20260504T12Z_MSC_GDPS_DewPointDepression_IsbL-0950_LatLon0.15_PT114H.grib2 2026-05-04 16:44 1.0M
20260504T12Z_MSC_GDPS_DewPointDepression_IsbL-0970_LatLon0.15_PT114H.grib2 2026-05-04 16:44 1.0M
20260504T12Z_MSC_GDPS_DewPointDepression_IsbL-0985_LatLon0.15_PT114H.grib2 2026-05-04 16:44 1.0M
20260504T12Z_MSC_GDPS_DewPointDepression_IsbL-1000_LatLon0.15_PT114H.grib2 2026-05-04 16:44 1.0M
20260504T12Z_MSC_GDPS_DewPointDepression_IsbL-1015_LatLon0.15_PT114H.grib2 2026-05-04 16:44 918K
20260504T12Z_MSC_GDPS_DewPoint_AGL-2m_LatLon0.15_PT114H.grib2 2026-05-04 16:44 609K
20260504T12Z_MSC_GDPS_DownwardLongwaveRadiationFlux-Accum_Sfc_LatLon0.15_PT114H.grib2 2026-05-04 16:44 795K
20260504T12Z_MSC_GDPS_DownwardShortwaveRadiationFlux-Accum_NTAtm_LatLon0.15_PT114H.grib2 2026-05-04 16:44 278K
20260504T12Z_MSC_GDPS_DownwardShortwaveRadiationFlux-Accum_Sfc_LatLon0.15_PT114H.grib2 2026-05-04 16:44 1.0M
20260504T12Z_MSC_GDPS_FreezingRain-Accum12h_Sfc_LatLon0.15_PT114H.grib2 2026-05-04 16:44 99K
20260504T12Z_MSC_GDPS_FreezingRain-Accum1h_Sfc_LatLon0.15_PT114H.grib2 2026-05-04 16:44 28K
20260504T12Z_MSC_GDPS_FreezingRain-Accum24h_Sfc_LatLon0.15_PT114H.grib2 2026-05-04 16:44 140K
20260504T12Z_MSC_GDPS_FreezingRain-Accum3h_Sfc_LatLon0.15_PT114H.grib2 2026-05-04 16:44 42K
20260504T12Z_MSC_GDPS_FreezingRain-Accum6h_Sfc_LatLon0.15_PT114H.grib2 2026-05-04 16:44 73K
20260504T12Z_MSC_GDPS_FreezingRain-Accum_Sfc_LatLon0.15_PT114H.grib2 2026-05-04 16:44 395K
20260504T12Z_MSC_GDPS_GeopotentialHeight_IsbL-0001_LatLon0.15_PT114H.grib2 2026-05-04 16:44 435K
20260504T12Z_MSC_GDPS_GeopotentialHeight_IsbL-0005_LatLon0.15_PT114H.grib2 2026-05-04 16:44 485K
20260504T12Z_MSC_GDPS_GeopotentialHeight_IsbL-0010_LatLon0.15_PT114H.grib2 2026-05-04 16:44 475K
20260504T12Z_MSC_GDPS_GeopotentialHeight_IsbL-0020_LatLon0.15_PT114H.grib2 2026-05-04 16:44 413K
20260504T12Z_MSC_GDPS_GeopotentialHeight_IsbL-0030_LatLon0.15_PT114H.grib2 2026-05-04 16:44 419K
20260504T12Z_MSC_GDPS_GeopotentialHeight_IsbL-0050_LatLon0.15_PT114H.grib2 2026-05-04 16:44 577K
20260504T12Z_MSC_GDPS_GeopotentialHeight_IsbL-0100_LatLon0.15_PT114H.grib2 2026-05-04 16:44 617K
20260504T12Z_MSC_GDPS_GeopotentialHeight_IsbL-0150_LatLon0.15_PT114H.grib2 2026-05-04 16:44 635K
20260504T12Z_MSC_GDPS_GeopotentialHeight_IsbL-0175_LatLon0.15_PT114H.grib2 2026-05-04 16:44 638K
20260504T12Z_MSC_GDPS_GeopotentialHeight_IsbL-0200_LatLon0.15_PT114H.grib2 2026-05-04 16:44 642K
20260504T12Z_MSC_GDPS_GeopotentialHeight_IsbL-0225_LatLon0.15_PT114H.grib2 2026-05-04 16:44 638K
20260504T12Z_MSC_GDPS_GeopotentialHeight_IsbL-0250_LatLon0.15_PT114H.grib2 2026-05-04 16:44 645K
20260504T12Z_MSC_GDPS_GeopotentialHeight_IsbL-0275_LatLon0.15_PT114H.grib2 2026-05-04 16:44 642K
20260504T12Z_MSC_GDPS_GeopotentialHeight_IsbL-0300_LatLon0.15_PT114H.grib2 2026-05-04 16:44 633K
20260504T12Z_MSC_GDPS_GeopotentialHeight_IsbL-0350_LatLon0.15_PT114H.grib2 2026-05-04 16:44 628K
20260504T12Z_MSC_GDPS_GeopotentialHeight_IsbL-0400_LatLon0.15_PT114H.grib2 2026-05-04 16:44 621K
20260504T12Z_MSC_GDPS_GeopotentialHeight_IsbL-0450_LatLon0.15_PT114H.grib2 2026-05-04 16:44 611K
20260504T12Z_MSC_GDPS_GeopotentialHeight_IsbL-0500_LatLon0.15_PT114H.grib2 2026-05-04 16:44 530K
20260504T12Z_MSC_GDPS_GeopotentialHeight_IsbL-0550_LatLon0.15_PT114H.grib2 2026-05-04 16:44 524K
20260504T12Z_MSC_GDPS_GeopotentialHeight_IsbL-0600_LatLon0.15_PT114H.grib2 2026-05-04 16:44 523K
20260504T12Z_MSC_GDPS_GeopotentialHeight_IsbL-0650_LatLon0.15_PT114H.grib2 2026-05-04 16:44 520K
20260504T12Z_MSC_GDPS_GeopotentialHeight_IsbL-0700_LatLon0.15_PT114H.grib2 2026-05-04 16:44 689K
20260504T12Z_MSC_GDPS_GeopotentialHeight_IsbL-0750_LatLon0.15_PT114H.grib2 2026-05-04 16:44 690K
20260504T12Z_MSC_GDPS_GeopotentialHeight_IsbL-0800_LatLon0.15_PT114H.grib2 2026-05-04 16:44 706K
20260504T12Z_MSC_GDPS_GeopotentialHeight_IsbL-0850_LatLon0.15_PT114H.grib2 2026-05-04 16:44 713K
20260504T12Z_MSC_GDPS_GeopotentialHeight_IsbL-0875_LatLon0.15_PT114H.grib2 2026-05-04 16:44 723K
20260504T12Z_MSC_GDPS_GeopotentialHeight_IsbL-0900_LatLon0.15_PT114H.grib2 2026-05-04 16:44 728K
20260504T12Z_MSC_GDPS_GeopotentialHeight_IsbL-0925_LatLon0.15_PT114H.grib2 2026-05-04 16:44 735K
20260504T12Z_MSC_GDPS_GeopotentialHeight_IsbL-0950_LatLon0.15_PT114H.grib2 2026-05-04 16:44 743K
20260504T12Z_MSC_GDPS_GeopotentialHeight_IsbL-0970_LatLon0.15_PT114H.grib2 2026-05-04 16:44 753K
20260504T12Z_MSC_GDPS_GeopotentialHeight_IsbL-0985_LatLon0.15_PT114H.grib2 2026-05-04 16:44 769K
20260504T12Z_MSC_GDPS_GeopotentialHeight_IsbL-1000_LatLon0.15_PT114H.grib2 2026-05-04 16:44 789K
20260504T12Z_MSC_GDPS_GeopotentialHeight_IsbL-1015_LatLon0.15_PT114H.grib2 2026-05-04 16:44 810K
20260504T12Z_MSC_GDPS_IcePellets-Accum12h_Sfc_LatLon0.15_PT114H.grib2 2026-05-04 16:44 29K
20260504T12Z_MSC_GDPS_IcePellets-Accum1h_Sfc_LatLon0.15_PT114H.grib2 2026-05-04 16:44 12K
20260504T12Z_MSC_GDPS_IcePellets-Accum24h_Sfc_LatLon0.15_PT114H.grib2 2026-05-04 16:44 38K
20260504T12Z_MSC_GDPS_IcePellets-Accum3h_Sfc_LatLon0.15_PT114H.grib2 2026-05-04 16:44 14K
20260504T12Z_MSC_GDPS_IcePellets-Accum6h_Sfc_LatLon0.15_PT114H.grib2 2026-05-04 16:44 21K
20260504T12Z_MSC_GDPS_IcePellets-Accum_Sfc_LatLon0.15_PT114H.grib2 2026-05-04 16:44 121K
20260504T12Z_MSC_GDPS_KIndex_Sfc_LatLon0.15_PT114H.grib2 2026-05-04 16:44 6.5M
20260504T12Z_MSC_GDPS_LatentHeatNetFlux_Sfc_LatLon0.15_PT114H.grib2 2026-05-04 16:44 550K
20260504T12Z_MSC_GDPS_LiftedIndex-MU-VT_IsbL-0500_LatLon0.15_PT114H.grib2 2026-05-04 16:44 5.4M
20260504T12Z_MSC_GDPS_NetLongwaveRadiationFlux-Accum_Sfc_LatLon0.15_PT114H.grib2 2026-05-04 16:44 1.0M
20260504T12Z_MSC_GDPS_NetShortwaveRadiationFlux-Accum_Sfc_LatLon0.15_PT114H.grib2 2026-05-04 16:44 1.0M
20260504T12Z_MSC_GDPS_O3MixingRatio_Sfc_LatLon0.15_PT114H.grib2 2026-05-04 17:18 1.9M
20260504T12Z_MSC_GDPS_O3_EAtm_LatLon0.15_PT114H.grib2 2026-05-04 17:18 2.4M
20260504T12Z_MSC_GDPS_PlanetaryBoundaryLayerHeight_Sfc_LatLon0.15_PT114H.grib2 2026-05-04 16:44 2.5M
20260504T12Z_MSC_GDPS_Precip-Accum12h_Sfc_LatLon0.15_PT114H.grib2 2026-05-04 16:44 4.1M
20260504T12Z_MSC_GDPS_Precip-Accum1h_Sfc_LatLon0.15_PT114H.grib2 2026-05-04 16:44 3.3M
20260504T12Z_MSC_GDPS_Precip-Accum24h_Sfc_LatLon0.15_PT114H.grib2 2026-05-04 16:44 4.6M
20260504T12Z_MSC_GDPS_Precip-Accum3h_Sfc_LatLon0.15_PT114H.grib2 2026-05-04 16:44 3.5M
20260504T12Z_MSC_GDPS_Precip-Accum6h_Sfc_LatLon0.15_PT114H.grib2 2026-05-04 16:44 3.9M
20260504T12Z_MSC_GDPS_Precip-Accum_Sfc_LatLon0.15_PT114H.grib2 2026-05-04 16:44 5.1M
20260504T12Z_MSC_GDPS_PrecipRate_Sfc_LatLon0.15_PT114H.grib2 2026-05-04 16:44 3.1M
20260504T12Z_MSC_GDPS_PrecipType-Instant_Sfc_LatLon0.15_PT114H.grib2 2026-05-04 16:44 1.5M
20260504T12Z_MSC_GDPS_Pressure_MSL_LatLon0.15_PT114H.grib2 2026-05-04 16:44 821K
20260504T12Z_MSC_GDPS_Pressure_Sfc_LatLon0.15_PT114H.grib2 2026-05-04 16:44 1.1M
20260504T12Z_MSC_GDPS_RadiativeTemp_Sfc_LatLon0.15_PT114H.grib2 2026-05-04 16:44 496K
20260504T12Z_MSC_GDPS_Rain-Accum12h_Sfc_LatLon0.15_PT114H.grib2 2026-05-04 16:44 2.7M
20260504T12Z_MSC_GDPS_Rain-Accum1h_Sfc_LatLon0.15_PT114H.grib2 2026-05-04 16:44 1.7M
20260504T12Z_MSC_GDPS_Rain-Accum24h_Sfc_LatLon0.15_PT114H.grib2 2026-05-04 16:44 3.2M
20260504T12Z_MSC_GDPS_Rain-Accum3h_Sfc_LatLon0.15_PT114H.grib2 2026-05-04 16:44 1.7M
20260504T12Z_MSC_GDPS_Rain-Accum6h_Sfc_LatLon0.15_PT114H.grib2 2026-05-04 16:44 2.5M
20260504T12Z_MSC_GDPS_Rain-Accum_Sfc_LatLon0.15_PT114H.grib2 2026-05-04 16:44 4.0M
20260504T12Z_MSC_GDPS_RelativeHumidity_AGL-2m_LatLon0.15_PT114H.grib2 2026-05-04 16:44 1.0M
20260504T12Z_MSC_GDPS_RelativeHumidity_IsbL-0010_LatLon0.15_PT114H.grib2 2026-05-04 16:44 124K
20260504T12Z_MSC_GDPS_RelativeHumidity_IsbL-0020_LatLon0.15_PT114H.grib2 2026-05-04 16:44 168K
20260504T12Z_MSC_GDPS_RelativeHumidity_IsbL-0030_LatLon0.15_PT114H.grib2 2026-05-04 16:44 186K
20260504T12Z_MSC_GDPS_RelativeHumidity_IsbL-0050_LatLon0.15_PT114H.grib2 2026-05-04 16:44 336K
20260504T12Z_MSC_GDPS_RelativeHumidity_IsbL-0100_LatLon0.15_PT114H.grib2 2026-05-04 16:44 502K
20260504T12Z_MSC_GDPS_RelativeHumidity_IsbL-0150_LatLon0.15_PT114H.grib2 2026-05-04 16:44 675K
20260504T12Z_MSC_GDPS_RelativeHumidity_IsbL-0175_LatLon0.15_PT114H.grib2 2026-05-04 16:44 803K
20260504T12Z_MSC_GDPS_RelativeHumidity_IsbL-0200_LatLon0.15_PT114H.grib2 2026-05-04 16:44 714K
20260504T12Z_MSC_GDPS_RelativeHumidity_IsbL-0225_LatLon0.15_PT114H.grib2 2026-05-04 16:44 787K
20260504T12Z_MSC_GDPS_RelativeHumidity_IsbL-0250_LatLon0.15_PT114H.grib2 2026-05-04 16:44 854K
20260504T12Z_MSC_GDPS_RelativeHumidity_IsbL-0275_LatLon0.15_PT114H.grib2 2026-05-04 16:44 874K
20260504T12Z_MSC_GDPS_RelativeHumidity_IsbL-0300_LatLon0.15_PT114H.grib2 2026-05-04 16:44 918K
20260504T12Z_MSC_GDPS_RelativeHumidity_IsbL-0350_LatLon0.15_PT114H.grib2 2026-05-04 16:44 933K
20260504T12Z_MSC_GDPS_RelativeHumidity_IsbL-0400_LatLon0.15_PT114H.grib2 2026-05-04 16:44 957K
20260504T12Z_MSC_GDPS_RelativeHumidity_IsbL-0450_LatLon0.15_PT114H.grib2 2026-05-04 16:44 1.0M
20260504T12Z_MSC_GDPS_RelativeHumidity_IsbL-0500_LatLon0.15_PT114H.grib2 2026-05-04 16:44 1.0M
20260504T12Z_MSC_GDPS_RelativeHumidity_IsbL-0550_LatLon0.15_PT114H.grib2 2026-05-04 16:44 1.0M
20260504T12Z_MSC_GDPS_RelativeHumidity_IsbL-0600_LatLon0.15_PT114H.grib2 2026-05-04 16:44 1.0M
20260504T12Z_MSC_GDPS_RelativeHumidity_IsbL-0650_LatLon0.15_PT114H.grib2 2026-05-04 16:44 1.1M
20260504T12Z_MSC_GDPS_RelativeHumidity_IsbL-0700_LatLon0.15_PT114H.grib2 2026-05-04 16:44 1.1M
20260504T12Z_MSC_GDPS_RelativeHumidity_IsbL-0750_LatLon0.15_PT114H.grib2 2026-05-04 16:44 1.1M
20260504T12Z_MSC_GDPS_RelativeHumidity_IsbL-0800_LatLon0.15_PT114H.grib2 2026-05-04 16:44 1.2M
20260504T12Z_MSC_GDPS_RelativeHumidity_IsbL-0850_LatLon0.15_PT114H.grib2 2026-05-04 16:44 1.3M
20260504T12Z_MSC_GDPS_RelativeHumidity_IsbL-0875_LatLon0.15_PT114H.grib2 2026-05-04 16:44 1.3M
20260504T12Z_MSC_GDPS_RelativeHumidity_IsbL-0900_LatLon0.15_PT114H.grib2 2026-05-04 16:44 1.2M
20260504T12Z_MSC_GDPS_RelativeHumidity_IsbL-0925_LatLon0.15_PT114H.grib2 2026-05-04 16:44 1.2M
20260504T12Z_MSC_GDPS_RelativeHumidity_IsbL-0950_LatLon0.15_PT114H.grib2 2026-05-04 16:44 1.2M
20260504T12Z_MSC_GDPS_RelativeHumidity_IsbL-0970_LatLon0.15_PT114H.grib2 2026-05-04 16:44 1.2M
20260504T12Z_MSC_GDPS_RelativeHumidity_IsbL-0985_LatLon0.15_PT114H.grib2 2026-05-04 16:44 1.1M
20260504T12Z_MSC_GDPS_RelativeHumidity_IsbL-1000_LatLon0.15_PT114H.grib2 2026-05-04 16:44 1.1M
20260504T12Z_MSC_GDPS_RelativeHumidity_IsbL-1015_LatLon0.15_PT114H.grib2 2026-05-04 16:44 1.0M
20260504T12Z_MSC_GDPS_RelativeVorticity_IsbL-0200_LatLon0.15_PT114H.grib2 2026-05-04 16:44 1.5M
20260504T12Z_MSC_GDPS_RelativeVorticity_IsbL-0250_LatLon0.15_PT114H.grib2 2026-05-04 16:44 1.3M
20260504T12Z_MSC_GDPS_RelativeVorticity_IsbL-0500_LatLon0.15_PT114H.grib2 2026-05-04 16:44 1.5M
20260504T12Z_MSC_GDPS_RelativeVorticity_IsbL-0700_LatLon0.15_PT114H.grib2 2026-05-04 16:44 1.3M
20260504T12Z_MSC_GDPS_RelativeVorticity_IsbL-0850_LatLon0.15_PT114H.grib2 2026-05-04 16:44 1.6M
20260504T12Z_MSC_GDPS_Runoff-Accum_Sfc_LatLon0.15_PT114H.grib2 2026-05-04 16:44 138K
20260504T12Z_MSC_GDPS_SensibleHeatNetFlux_Sfc_LatLon0.15_PT114H.grib2 2026-05-04 16:44 491K
20260504T12Z_MSC_GDPS_ShowalterIndex_IsbL-0500_LatLon0.15_PT114H.grib2 2026-05-04 16:44 6.2M
20260504T12Z_MSC_GDPS_Snow-Accum12h_Sfc_LatLon0.15_PT114H.grib2 2026-05-04 16:44 1.3M
20260504T12Z_MSC_GDPS_Snow-Accum1h_Sfc_LatLon0.15_PT114H.grib2 2026-05-04 16:44 872K
20260504T12Z_MSC_GDPS_Snow-Accum24h_Sfc_LatLon0.15_PT114H.grib2 2026-05-04 16:44 1.4M
20260504T12Z_MSC_GDPS_Snow-Accum3h_Sfc_LatLon0.15_PT114H.grib2 2026-05-04 16:44 909K
20260504T12Z_MSC_GDPS_Snow-Accum6h_Sfc_LatLon0.15_PT114H.grib2 2026-05-04 16:44 1.3M
20260504T12Z_MSC_GDPS_Snow-Accum_Sfc_LatLon0.15_PT114H.grib2 2026-05-04 16:44 2.1M
20260504T12Z_MSC_GDPS_SnowDensity_Sfc_LatLon0.15_PT114H.grib2 2026-05-04 16:44 259K
20260504T12Z_MSC_GDPS_SnowDepth_Sfc_LatLon0.15_PT114H.grib2 2026-05-04 16:44 1.7M
20260504T12Z_MSC_GDPS_SoilTemp_DBS-0to10cm_LatLon0.15_PT114H.grib2 2026-05-04 16:44 512K
20260504T12Z_MSC_GDPS_SoilTemp_Sfc_LatLon0.15_PT114H.grib2 2026-05-04 16:44 581K
20260504T12Z_MSC_GDPS_SoilVolumetricIceContent_Sfc_LatLon0.15_PT114H.grib2 2026-05-04 16:44 181K
20260504T12Z_MSC_GDPS_SoilVolumetricWaterContent_DBS-0to10cm_LatLon0.15_PT114H.grib2 2026-05-04 16:44 599K
20260504T12Z_MSC_GDPS_SoilVolumetricWaterContent_DBS-0to1cm_LatLon0.15_PT114H.grib2 2026-05-04 16:44 657K
20260504T12Z_MSC_GDPS_SpecificHumidity_AGL-120m_LatLon0.15_PT114H.grib2 2026-05-04 16:44 1.1M
20260504T12Z_MSC_GDPS_SpecificHumidity_AGL-2m_LatLon0.15_PT114H.grib2 2026-05-04 16:44 1.2M
20260504T12Z_MSC_GDPS_SpecificHumidity_AGL-40m_LatLon0.15_PT114H.grib2 2026-05-04 16:44 1.1M
20260504T12Z_MSC_GDPS_SpecificHumidity_AGL-80m_LatLon0.15_PT114H.grib2 2026-05-04 16:44 1.1M
20260504T12Z_MSC_GDPS_SpecificHumidity_IsbL-0001_LatLon0.15_PT114H.grib2 2026-05-04 16:44 1.3M
20260504T12Z_MSC_GDPS_SpecificHumidity_IsbL-0005_LatLon0.15_PT114H.grib2 2026-05-04 16:44 1.2M
20260504T12Z_MSC_GDPS_SpecificHumidity_IsbL-0010_LatLon0.15_PT114H.grib2 2026-05-04 16:44 1.3M
20260504T12Z_MSC_GDPS_SpecificHumidity_IsbL-0020_LatLon0.15_PT114H.grib2 2026-05-04 16:44 1.3M
20260504T12Z_MSC_GDPS_SpecificHumidity_IsbL-0030_LatLon0.15_PT114H.grib2 2026-05-04 16:44 1.2M
20260504T12Z_MSC_GDPS_SpecificHumidity_IsbL-0050_LatLon0.15_PT114H.grib2 2026-05-04 16:44 1.6M
20260504T12Z_MSC_GDPS_SpecificHumidity_IsbL-0100_LatLon0.15_PT114H.grib2 2026-05-04 16:44 1.3M
20260504T12Z_MSC_GDPS_SpecificHumidity_IsbL-0150_LatLon0.15_PT114H.grib2 2026-05-04 16:44 1.3M
20260504T12Z_MSC_GDPS_SpecificHumidity_IsbL-0175_LatLon0.15_PT114H.grib2 2026-05-04 16:44 1.3M
20260504T12Z_MSC_GDPS_SpecificHumidity_IsbL-0200_LatLon0.15_PT114H.grib2 2026-05-04 16:44 1.3M
20260504T12Z_MSC_GDPS_SpecificHumidity_IsbL-0225_LatLon0.15_PT114H.grib2 2026-05-04 16:44 1.3M
20260504T12Z_MSC_GDPS_SpecificHumidity_IsbL-0250_LatLon0.15_PT114H.grib2 2026-05-04 16:44 1.2M
20260504T12Z_MSC_GDPS_SpecificHumidity_IsbL-0275_LatLon0.15_PT114H.grib2 2026-05-04 16:44 1.3M
20260504T12Z_MSC_GDPS_SpecificHumidity_IsbL-0300_LatLon0.15_PT114H.grib2 2026-05-04 16:44 1.2M
20260504T12Z_MSC_GDPS_SpecificHumidity_IsbL-0350_LatLon0.15_PT114H.grib2 2026-05-04 16:44 1.2M
20260504T12Z_MSC_GDPS_SpecificHumidity_IsbL-0400_LatLon0.15_PT114H.grib2 2026-05-04 16:44 1.4M
20260504T12Z_MSC_GDPS_SpecificHumidity_IsbL-0450_LatLon0.15_PT114H.grib2 2026-05-04 16:44 1.3M
20260504T12Z_MSC_GDPS_SpecificHumidity_IsbL-0500_LatLon0.15_PT114H.grib2 2026-05-04 16:44 1.4M
20260504T12Z_MSC_GDPS_SpecificHumidity_IsbL-0550_LatLon0.15_PT114H.grib2 2026-05-04 16:44 1.6M
20260504T12Z_MSC_GDPS_SpecificHumidity_IsbL-0600_LatLon0.15_PT114H.grib2 2026-05-04 16:44 1.4M
20260504T12Z_MSC_GDPS_SpecificHumidity_IsbL-0650_LatLon0.15_PT114H.grib2 2026-05-04 16:44 1.5M
20260504T12Z_MSC_GDPS_SpecificHumidity_IsbL-0700_LatLon0.15_PT114H.grib2 2026-05-04 16:44 1.6M
20260504T12Z_MSC_GDPS_SpecificHumidity_IsbL-0750_LatLon0.15_PT114H.grib2 2026-05-04 16:44 1.7M
20260504T12Z_MSC_GDPS_SpecificHumidity_IsbL-0800_LatLon0.15_PT114H.grib2 2026-05-04 16:44 1.9M
20260504T12Z_MSC_GDPS_SpecificHumidity_IsbL-0850_LatLon0.15_PT114H.grib2 2026-05-04 16:44 2.0M
20260504T12Z_MSC_GDPS_SpecificHumidity_IsbL-0875_LatLon0.15_PT114H.grib2 2026-05-04 16:44 2.0M
20260504T12Z_MSC_GDPS_SpecificHumidity_IsbL-0900_LatLon0.15_PT114H.grib2 2026-05-04 16:44 1.9M
20260504T12Z_MSC_GDPS_SpecificHumidity_IsbL-0925_LatLon0.15_PT114H.grib2 2026-05-04 16:44 1.6M
20260504T12Z_MSC_GDPS_SpecificHumidity_IsbL-0950_LatLon0.15_PT114H.grib2 2026-05-04 16:44 1.6M
20260504T12Z_MSC_GDPS_SpecificHumidity_IsbL-0970_LatLon0.15_PT114H.grib2 2026-05-04 16:44 1.5M
20260504T12Z_MSC_GDPS_SpecificHumidity_IsbL-0985_LatLon0.15_PT114H.grib2 2026-05-04 16:44 1.5M
20260504T12Z_MSC_GDPS_SpecificHumidity_IsbL-1000_LatLon0.15_PT114H.grib2 2026-05-04 16:44 1.5M
20260504T12Z_MSC_GDPS_SpecificHumidity_IsbL-1015_LatLon0.15_PT114H.grib2 2026-05-04 16:44 1.5M
20260504T12Z_MSC_GDPS_SpecificHumidity_Sfc_LatLon0.15_PT114H.grib2 2026-05-04 16:44 677K
20260504T12Z_MSC_GDPS_Thickness_IsbL-0850to0700_LatLon0.15_PT114H.grib2 2026-05-04 16:44 472K
20260504T12Z_MSC_GDPS_Thickness_IsbL-1000to0500_LatLon0.15_PT114H.grib2 2026-05-04 16:44 375K
20260504T12Z_MSC_GDPS_Thickness_IsbL-1000to0850_LatLon0.15_PT114H.grib2 2026-05-04 16:44 493K
20260504T12Z_MSC_GDPS_TotalCloudCover_Sfc_LatLon0.15_PT114H.grib2 2026-05-04 16:44 825K
20260504T12Z_MSC_GDPS_TotalTotalsIndex_Sfc_LatLon0.15_PT114H.grib2 2026-05-04 16:44 6.2M
20260504T12Z_MSC_GDPS_UVIndex-ClearSky_Sfc_LatLon0.15_PT114H.grib2 2026-05-04 17:18 1.1M
20260504T12Z_MSC_GDPS_UVIndex_Sfc_LatLon0.15_PT114H.grib2 2026-05-04 17:18 1.5M
20260504T12Z_MSC_GDPS_UpwardLongwaveRadiationFlux_NTAtm_LatLon0.15_PT114H.grib2 2026-05-04 16:44 825K
20260504T12Z_MSC_GDPS_VerticalVelocity_IsbL-0200_LatLon0.15_PT114H.grib2 2026-05-04 16:44 935K
20260504T12Z_MSC_GDPS_VerticalVelocity_IsbL-0250_LatLon0.15_PT114H.grib2 2026-05-04 16:44 1.1M
20260504T12Z_MSC_GDPS_VerticalVelocity_IsbL-0500_LatLon0.15_PT114H.grib2 2026-05-04 16:44 1.3M
20260504T12Z_MSC_GDPS_VerticalVelocity_IsbL-0600_LatLon0.15_PT114H.grib2 2026-05-04 16:44 1.1M
20260504T12Z_MSC_GDPS_VerticalVelocity_IsbL-0700_LatLon0.15_PT114H.grib2 2026-05-04 16:44 1.1M
20260504T12Z_MSC_GDPS_VerticalVelocity_IsbL-0850_LatLon0.15_PT114H.grib2 2026-05-04 16:44 1.3M
20260504T12Z_MSC_GDPS_WindChill_Sfc_LatLon0.15_PT114H.grib2 2026-05-04 16:44 5.3M
20260504T12Z_MSC_GDPS_WindDir_AGL-10m_LatLon0.15_PT114H.grib2 2026-05-04 16:44 1.3M
20260504T12Z_MSC_GDPS_WindDir_AGL-120m_LatLon0.15_PT114H.grib2 2026-05-04 16:44 1.3M
20260504T12Z_MSC_GDPS_WindDir_AGL-40m_LatLon0.15_PT114H.grib2 2026-05-04 16:44 1.4M
20260504T12Z_MSC_GDPS_WindDir_AGL-80m_LatLon0.15_PT114H.grib2 2026-05-04 16:44 1.3M
20260504T12Z_MSC_GDPS_WindDir_IsbL-0001_LatLon0.15_PT114H.grib2 2026-05-04 16:44 663K
20260504T12Z_MSC_GDPS_WindDir_IsbL-0005_LatLon0.15_PT114H.grib2 2026-05-04 16:44 818K
20260504T12Z_MSC_GDPS_WindDir_IsbL-0010_LatLon0.15_PT114H.grib2 2026-05-04 16:44 850K
20260504T12Z_MSC_GDPS_WindDir_IsbL-0020_LatLon0.15_PT114H.grib2 2026-05-04 16:44 929K
20260504T12Z_MSC_GDPS_WindDir_IsbL-0030_LatLon0.15_PT114H.grib2 2026-05-04 16:44 923K
20260504T12Z_MSC_GDPS_WindDir_IsbL-0050_LatLon0.15_PT114H.grib2 2026-05-04 16:44 955K
20260504T12Z_MSC_GDPS_WindDir_IsbL-0100_LatLon0.15_PT114H.grib2 2026-05-04 16:44 1.0M
20260504T12Z_MSC_GDPS_WindDir_IsbL-0150_LatLon0.15_PT114H.grib2 2026-05-04 16:44 1.0M
20260504T12Z_MSC_GDPS_WindDir_IsbL-0175_LatLon0.15_PT114H.grib2 2026-05-04 16:44 1.0M
20260504T12Z_MSC_GDPS_WindDir_IsbL-0200_LatLon0.15_PT114H.grib2 2026-05-04 16:44 1.1M
20260504T12Z_MSC_GDPS_WindDir_IsbL-0225_LatLon0.15_PT114H.grib2 2026-05-04 16:44 1.1M
20260504T12Z_MSC_GDPS_WindDir_IsbL-0250_LatLon0.15_PT114H.grib2 2026-05-04 16:44 1.1M
20260504T12Z_MSC_GDPS_WindDir_IsbL-0275_LatLon0.15_PT114H.grib2 2026-05-04 16:44 1.2M
20260504T12Z_MSC_GDPS_WindDir_IsbL-0300_LatLon0.15_PT114H.grib2 2026-05-04 16:44 1.2M
20260504T12Z_MSC_GDPS_WindDir_IsbL-0350_LatLon0.15_PT114H.grib2 2026-05-04 16:44 1.2M
20260504T12Z_MSC_GDPS_WindDir_IsbL-0400_LatLon0.15_PT114H.grib2 2026-05-04 16:44 1.3M
20260504T12Z_MSC_GDPS_WindDir_IsbL-0450_LatLon0.15_PT114H.grib2 2026-05-04 16:44 1.3M
20260504T12Z_MSC_GDPS_WindDir_IsbL-0500_LatLon0.15_PT114H.grib2 2026-05-04 16:44 1.4M
20260504T12Z_MSC_GDPS_WindDir_IsbL-0550_LatLon0.15_PT114H.grib2 2026-05-04 16:44 1.4M
20260504T12Z_MSC_GDPS_WindDir_IsbL-0600_LatLon0.15_PT114H.grib2 2026-05-04 16:44 1.4M
20260504T12Z_MSC_GDPS_WindDir_IsbL-0650_LatLon0.15_PT114H.grib2 2026-05-04 16:44 1.5M
20260504T12Z_MSC_GDPS_WindDir_IsbL-0700_LatLon0.15_PT114H.grib2 2026-05-04 16:44 1.6M
20260504T12Z_MSC_GDPS_WindDir_IsbL-0750_LatLon0.15_PT114H.grib2 2026-05-04 16:44 1.7M
20260504T12Z_MSC_GDPS_WindDir_IsbL-0800_LatLon0.15_PT114H.grib2 2026-05-04 16:44 1.8M
20260504T12Z_MSC_GDPS_WindDir_IsbL-0850_LatLon0.15_PT114H.grib2 2026-05-04 16:44 1.9M
20260504T12Z_MSC_GDPS_WindDir_IsbL-0875_LatLon0.15_PT114H.grib2 2026-05-04 16:44 1.9M
20260504T12Z_MSC_GDPS_WindDir_IsbL-0900_LatLon0.15_PT114H.grib2 2026-05-04 16:44 1.9M
20260504T12Z_MSC_GDPS_WindDir_IsbL-0925_LatLon0.15_PT114H.grib2 2026-05-04 16:44 1.9M
20260504T12Z_MSC_GDPS_WindDir_IsbL-0950_LatLon0.15_PT114H.grib2 2026-05-04 16:44 1.9M
20260504T12Z_MSC_GDPS_WindDir_IsbL-0970_LatLon0.15_PT114H.grib2 2026-05-04 16:44 2.0M
20260504T12Z_MSC_GDPS_WindDir_IsbL-0985_LatLon0.15_PT114H.grib2 2026-05-04 16:44 2.0M
20260504T12Z_MSC_GDPS_WindDir_IsbL-1000_LatLon0.15_PT114H.grib2 2026-05-04 16:44 2.0M
20260504T12Z_MSC_GDPS_WindDir_IsbL-1015_LatLon0.15_PT114H.grib2 2026-05-04 16:44 2.0M
20260504T12Z_MSC_GDPS_WindGust-Max_AGL-10m_LatLon0.15_PT114H.grib2 2026-05-04 16:44 2.2M
20260504T12Z_MSC_GDPS_WindGust-Min_AGL-10m_LatLon0.15_PT114H.grib2 2026-05-04 16:44 2.1M
20260504T12Z_MSC_GDPS_WindGust_AGL-10m_LatLon0.15_PT114H.grib2 2026-05-04 16:44 2.1M
20260504T12Z_MSC_GDPS_WindSpeed_AGL-10m_LatLon0.15_PT114H.grib2 2026-05-04 16:44 1.1M
20260504T12Z_MSC_GDPS_WindSpeed_AGL-120m_LatLon0.15_PT114H.grib2 2026-05-04 16:44 1.2M
20260504T12Z_MSC_GDPS_WindSpeed_AGL-40m_LatLon0.15_PT114H.grib2 2026-05-04 16:44 1.2M
20260504T12Z_MSC_GDPS_WindSpeed_AGL-80m_LatLon0.15_PT114H.grib2 2026-05-04 16:44 1.2M
20260504T12Z_MSC_GDPS_WindSpeed_IsbL-0001_LatLon0.15_PT114H.grib2 2026-05-04 16:44 650K
20260504T12Z_MSC_GDPS_WindSpeed_IsbL-0005_LatLon0.15_PT114H.grib2 2026-05-04 16:44 696K
20260504T12Z_MSC_GDPS_WindSpeed_IsbL-0010_LatLon0.15_PT114H.grib2 2026-05-04 16:44 630K
20260504T12Z_MSC_GDPS_WindSpeed_IsbL-0020_LatLon0.15_PT114H.grib2 2026-05-04 16:44 665K
20260504T12Z_MSC_GDPS_WindSpeed_IsbL-0030_LatLon0.15_PT114H.grib2 2026-05-04 16:44 866K
20260504T12Z_MSC_GDPS_WindSpeed_IsbL-0050_LatLon0.15_PT114H.grib2 2026-05-04 16:44 901K
20260504T12Z_MSC_GDPS_WindSpeed_IsbL-0100_LatLon0.15_PT114H.grib2 2026-05-04 16:44 1.1M
20260504T12Z_MSC_GDPS_WindSpeed_IsbL-0150_LatLon0.15_PT114H.grib2 2026-05-04 16:44 937K
20260504T12Z_MSC_GDPS_WindSpeed_IsbL-0175_LatLon0.15_PT114H.grib2 2026-05-04 16:44 1.0M
20260504T12Z_MSC_GDPS_WindSpeed_IsbL-0200_LatLon0.15_PT114H.grib2 2026-05-04 16:44 1.1M
20260504T12Z_MSC_GDPS_WindSpeed_IsbL-0225_LatLon0.15_PT114H.grib2 2026-05-04 16:44 1.1M
20260504T12Z_MSC_GDPS_WindSpeed_IsbL-0250_LatLon0.15_PT114H.grib2 2026-05-04 16:44 1.1M
20260504T12Z_MSC_GDPS_WindSpeed_IsbL-0275_LatLon0.15_PT114H.grib2 2026-05-04 16:44 1.1M
20260504T12Z_MSC_GDPS_WindSpeed_IsbL-0300_LatLon0.15_PT114H.grib2 2026-05-04 16:44 1.1M
20260504T12Z_MSC_GDPS_WindSpeed_IsbL-0350_LatLon0.15_PT114H.grib2 2026-05-04 16:44 1.1M
20260504T12Z_MSC_GDPS_WindSpeed_IsbL-0400_LatLon0.15_PT114H.grib2 2026-05-04 16:44 1.1M
20260504T12Z_MSC_GDPS_WindSpeed_IsbL-0450_LatLon0.15_PT114H.grib2 2026-05-04 16:44 1.1M
20260504T12Z_MSC_GDPS_WindSpeed_IsbL-0500_LatLon0.15_PT114H.grib2 2026-05-04 16:44 1.1M
20260504T12Z_MSC_GDPS_WindSpeed_IsbL-0550_LatLon0.15_PT114H.grib2 2026-05-04 16:44 1.1M
20260504T12Z_MSC_GDPS_WindSpeed_IsbL-0600_LatLon0.15_PT114H.grib2 2026-05-04 16:44 1.1M
20260504T12Z_MSC_GDPS_WindSpeed_IsbL-0650_LatLon0.15_PT114H.grib2 2026-05-04 16:44 1.2M
20260504T12Z_MSC_GDPS_WindSpeed_IsbL-0700_LatLon0.15_PT114H.grib2 2026-05-04 16:44 1.5M
20260504T12Z_MSC_GDPS_WindSpeed_IsbL-0750_LatLon0.15_PT114H.grib2 2026-05-04 16:44 1.6M
20260504T12Z_MSC_GDPS_WindSpeed_IsbL-0800_LatLon0.15_PT114H.grib2 2026-05-04 16:44 1.6M
20260504T12Z_MSC_GDPS_WindSpeed_IsbL-0850_LatLon0.15_PT114H.grib2 2026-05-04 16:44 1.7M
20260504T12Z_MSC_GDPS_WindSpeed_IsbL-0875_LatLon0.15_PT114H.grib2 2026-05-04 16:44 1.8M
20260504T12Z_MSC_GDPS_WindSpeed_IsbL-0900_LatLon0.15_PT114H.grib2 2026-05-04 16:44 1.8M
20260504T12Z_MSC_GDPS_WindSpeed_IsbL-0925_LatLon0.15_PT114H.grib2 2026-05-04 16:44 1.8M
20260504T12Z_MSC_GDPS_WindSpeed_IsbL-0950_LatLon0.15_PT114H.grib2 2026-05-04 16:44 1.9M
20260504T12Z_MSC_GDPS_WindSpeed_IsbL-0970_LatLon0.15_PT114H.grib2 2026-05-04 16:44 1.9M
20260504T12Z_MSC_GDPS_WindSpeed_IsbL-0985_LatLon0.15_PT114H.grib2 2026-05-04 16:44 1.9M
20260504T12Z_MSC_GDPS_WindSpeed_IsbL-1000_LatLon0.15_PT114H.grib2 2026-05-04 16:44 1.8M
20260504T12Z_MSC_GDPS_WindSpeed_IsbL-1015_LatLon0.15_PT114H.grib2 2026-05-04 16:44 1.8M
20260504T12Z_MSC_GDPS_WindU_AGL-10m_LatLon0.15_PT114H.grib2 2026-05-04 16:44 1.3M
20260504T12Z_MSC_GDPS_WindU_AGL-120m_LatLon0.15_PT114H.grib2 2026-05-04 16:44 1.0M
20260504T12Z_MSC_GDPS_WindU_AGL-40m_LatLon0.15_PT114H.grib2 2026-05-04 16:44 955K
20260504T12Z_MSC_GDPS_WindU_AGL-80m_LatLon0.15_PT114H.grib2 2026-05-04 16:44 960K
20260504T12Z_MSC_GDPS_WindU_IsbL-0001_LatLon0.15_PT114H.grib2 2026-05-04 16:44 504K
20260504T12Z_MSC_GDPS_WindU_IsbL-0005_LatLon0.15_PT114H.grib2 2026-05-04 16:44 692K
20260504T12Z_MSC_GDPS_WindU_IsbL-0010_LatLon0.15_PT114H.grib2 2026-05-04 16:44 703K
20260504T12Z_MSC_GDPS_WindU_IsbL-0020_LatLon0.15_PT114H.grib2 2026-05-04 16:44 730K
20260504T12Z_MSC_GDPS_WindU_IsbL-0030_LatLon0.15_PT114H.grib2 2026-05-04 16:44 741K
20260504T12Z_MSC_GDPS_WindU_IsbL-0050_LatLon0.15_PT114H.grib2 2026-05-04 16:44 765K
20260504T12Z_MSC_GDPS_WindU_IsbL-0100_LatLon0.15_PT114H.grib2 2026-05-04 16:44 922K
20260504T12Z_MSC_GDPS_WindU_IsbL-0150_LatLon0.15_PT114H.grib2 2026-05-04 16:44 1.0M
20260504T12Z_MSC_GDPS_WindU_IsbL-0175_LatLon0.15_PT114H.grib2 2026-05-04 16:44 1.0M
20260504T12Z_MSC_GDPS_WindU_IsbL-0200_LatLon0.15_PT114H.grib2 2026-05-04 16:44 1.0M
20260504T12Z_MSC_GDPS_WindU_IsbL-0225_LatLon0.15_PT114H.grib2 2026-05-04 16:44 848K
20260504T12Z_MSC_GDPS_WindU_IsbL-0250_LatLon0.15_PT114H.grib2 2026-05-04 16:44 847K
20260504T12Z_MSC_GDPS_WindU_IsbL-0275_LatLon0.15_PT114H.grib2 2026-05-04 16:44 871K
20260504T12Z_MSC_GDPS_WindU_IsbL-0300_LatLon0.15_PT114H.grib2 2026-05-04 16:44 861K
20260504T12Z_MSC_GDPS_WindU_IsbL-0350_LatLon0.15_PT114H.grib2 2026-05-04 16:44 879K
20260504T12Z_MSC_GDPS_WindU_IsbL-0400_LatLon0.15_PT114H.grib2 2026-05-04 16:44 1.1M
20260504T12Z_MSC_GDPS_WindU_IsbL-0450_LatLon0.15_PT114H.grib2 2026-05-04 16:44 1.1M
20260504T12Z_MSC_GDPS_WindU_IsbL-0500_LatLon0.15_PT114H.grib2 2026-05-04 16:44 1.1M
20260504T12Z_MSC_GDPS_WindU_IsbL-0550_LatLon0.15_PT114H.grib2 2026-05-04 16:44 1.1M
20260504T12Z_MSC_GDPS_WindU_IsbL-0600_LatLon0.15_PT114H.grib2 2026-05-04 16:44 1.1M
20260504T12Z_MSC_GDPS_WindU_IsbL-0650_LatLon0.15_PT114H.grib2 2026-05-04 16:44 1.2M
20260504T12Z_MSC_GDPS_WindU_IsbL-0700_LatLon0.15_PT114H.grib2 2026-05-04 16:44 1.2M
20260504T12Z_MSC_GDPS_WindU_IsbL-0750_LatLon0.15_PT114H.grib2 2026-05-04 16:44 1.3M
20260504T12Z_MSC_GDPS_WindU_IsbL-0800_LatLon0.15_PT114H.grib2 2026-05-04 16:44 1.3M
20260504T12Z_MSC_GDPS_WindU_IsbL-0850_LatLon0.15_PT114H.grib2 2026-05-04 16:44 1.4M
20260504T12Z_MSC_GDPS_WindU_IsbL-0875_LatLon0.15_PT114H.grib2 2026-05-04 16:44 1.4M
20260504T12Z_MSC_GDPS_WindU_IsbL-0900_LatLon0.15_PT114H.grib2 2026-05-04 16:44 1.5M
20260504T12Z_MSC_GDPS_WindU_IsbL-0925_LatLon0.15_PT114H.grib2 2026-05-04 16:44 1.4M
20260504T12Z_MSC_GDPS_WindU_IsbL-0950_LatLon0.15_PT114H.grib2 2026-05-04 16:44 1.4M
20260504T12Z_MSC_GDPS_WindU_IsbL-0970_LatLon0.15_PT114H.grib2 2026-05-04 16:44 1.4M
20260504T12Z_MSC_GDPS_WindU_IsbL-0985_LatLon0.15_PT114H.grib2 2026-05-04 16:44 1.4M
20260504T12Z_MSC_GDPS_WindU_IsbL-1000_LatLon0.15_PT114H.grib2 2026-05-04 16:44 1.4M
20260504T12Z_MSC_GDPS_WindU_IsbL-1015_LatLon0.15_PT114H.grib2 2026-05-04 16:44 1.3M
20260504T12Z_MSC_GDPS_WindV_AGL-10m_LatLon0.15_PT114H.grib2 2026-05-04 16:44 1.3M
20260504T12Z_MSC_GDPS_WindV_AGL-120m_LatLon0.15_PT114H.grib2 2026-05-04 16:44 1.0M
20260504T12Z_MSC_GDPS_WindV_AGL-40m_LatLon0.15_PT114H.grib2 2026-05-04 16:44 956K
20260504T12Z_MSC_GDPS_WindV_AGL-80m_LatLon0.15_PT114H.grib2 2026-05-04 16:44 962K
20260504T12Z_MSC_GDPS_WindV_IsbL-0001_LatLon0.15_PT114H.grib2 2026-05-04 16:44 720K
20260504T12Z_MSC_GDPS_WindV_IsbL-0005_LatLon0.15_PT114H.grib2 2026-05-04 16:44 769K
20260504T12Z_MSC_GDPS_WindV_IsbL-0010_LatLon0.15_PT114H.grib2 2026-05-04 16:44 797K
20260504T12Z_MSC_GDPS_WindV_IsbL-0020_LatLon0.15_PT114H.grib2 2026-05-04 16:44 847K
20260504T12Z_MSC_GDPS_WindV_IsbL-0030_LatLon0.15_PT114H.grib2 2026-05-04 16:44 938K
20260504T12Z_MSC_GDPS_WindV_IsbL-0050_LatLon0.15_PT114H.grib2 2026-05-04 16:44 1.0M
20260504T12Z_MSC_GDPS_WindV_IsbL-0100_LatLon0.15_PT114H.grib2 2026-05-04 16:44 853K
20260504T12Z_MSC_GDPS_WindV_IsbL-0150_LatLon0.15_PT114H.grib2 2026-05-04 16:44 1.0M
20260504T12Z_MSC_GDPS_WindV_IsbL-0175_LatLon0.15_PT114H.grib2 2026-05-04 16:44 815K
20260504T12Z_MSC_GDPS_WindV_IsbL-0200_LatLon0.15_PT114H.grib2 2026-05-04 16:44 903K
20260504T12Z_MSC_GDPS_WindV_IsbL-0225_LatLon0.15_PT114H.grib2 2026-05-04 16:44 907K
20260504T12Z_MSC_GDPS_WindV_IsbL-0250_LatLon0.15_PT114H.grib2 2026-05-04 16:44 905K
20260504T12Z_MSC_GDPS_WindV_IsbL-0275_LatLon0.15_PT114H.grib2 2026-05-04 16:44 927K
20260504T12Z_MSC_GDPS_WindV_IsbL-0300_LatLon0.15_PT114H.grib2 2026-05-04 16:44 917K
20260504T12Z_MSC_GDPS_WindV_IsbL-0350_LatLon0.15_PT114H.grib2 2026-05-04 16:44 870K
20260504T12Z_MSC_GDPS_WindV_IsbL-0400_LatLon0.15_PT114H.grib2 2026-05-04 16:44 873K
20260504T12Z_MSC_GDPS_WindV_IsbL-0450_LatLon0.15_PT114H.grib2 2026-05-04 16:44 876K
20260504T12Z_MSC_GDPS_WindV_IsbL-0500_LatLon0.15_PT114H.grib2 2026-05-04 16:44 1.1M
20260504T12Z_MSC_GDPS_WindV_IsbL-0550_LatLon0.15_PT114H.grib2 2026-05-04 16:44 1.1M
20260504T12Z_MSC_GDPS_WindV_IsbL-0600_LatLon0.15_PT114H.grib2 2026-05-04 16:44 1.1M
20260504T12Z_MSC_GDPS_WindV_IsbL-0650_LatLon0.15_PT114H.grib2 2026-05-04 16:44 1.2M
20260504T12Z_MSC_GDPS_WindV_IsbL-0700_LatLon0.15_PT114H.grib2 2026-05-04 16:44 1.2M
20260504T12Z_MSC_GDPS_WindV_IsbL-0750_LatLon0.15_PT114H.grib2 2026-05-04 16:44 1.3M
20260504T12Z_MSC_GDPS_WindV_IsbL-0800_LatLon0.15_PT114H.grib2 2026-05-04 16:44 1.3M
20260504T12Z_MSC_GDPS_WindV_IsbL-0850_LatLon0.15_PT114H.grib2 2026-05-04 16:44 1.4M
20260504T12Z_MSC_GDPS_WindV_IsbL-0875_LatLon0.15_PT114H.grib2 2026-05-04 16:44 1.4M
20260504T12Z_MSC_GDPS_WindV_IsbL-0900_LatLon0.15_PT114H.grib2 2026-05-04 16:44 1.4M
20260504T12Z_MSC_GDPS_WindV_IsbL-0925_LatLon0.15_PT114H.grib2 2026-05-04 16:44 1.4M
20260504T12Z_MSC_GDPS_WindV_IsbL-0950_LatLon0.15_PT114H.grib2 2026-05-04 16:44 1.4M
20260504T12Z_MSC_GDPS_WindV_IsbL-0970_LatLon0.15_PT114H.grib2 2026-05-04 16:44 1.4M
20260504T12Z_MSC_GDPS_WindV_IsbL-0985_LatLon0.15_PT114H.grib2 2026-05-04 16:44 1.4M
20260504T12Z_MSC_GDPS_WindV_IsbL-1000_LatLon0.15_PT114H.grib2 2026-05-04 16:44 1.4M
20260504T12Z_MSC_GDPS_WindV_IsbL-1015_LatLon0.15_PT114H.grib2 2026-05-04 16:44 1.3M